When you browse on this site, cookies collect data to enhance your experience and personalize the content and advertising you see.
Visit our Privacy Policy to learn more. By continuing to use the site, you agree to this use of cookies and data.
  • Em Portugal
  • Lista de países
  • Para 7 dias
  • Temperatura da água
  • Mapa do tempo
  • Widgets de tempo
  • user-avatar
    Iniciar Sessão

    Previsão horária em Cachungo

    Hoje, 4 Abril, Sábado

    Tempo Temperatura Precipitação Vento Pressão Humidade
    00:00 +26°C° 0 mm 2 m/s 755 mmHg 50%
    01:00 +25°C° 0 mm 1 m/s 755 mmHg 51%
    02:00 +24°C° 0 mm 1 m/s 755 mmHg 51%
    03:00 +24°C° 0 mm 1 m/s 755 mmHg 49%
    04:00 +24°C° 0 mm 1 m/s 754 mmHg 46%
    05:00 +24°C° 0 mm 1 m/s 755 mmHg 44%
    06:00 +26°C° 0 mm 2 m/s 755 mmHg 39%
    07:00 +29°C° 0 mm 2 m/s 756 mmHg 34%
    08:00 +31°C° 0 mm 2 m/s 756 mmHg 29%
    09:00 +35°C° 0 mm 3 m/s 756 mmHg 25%
    10:00 +38°C° 0 mm 3 m/s 756 mmHg 20%
    11:00 +42°C° 0 mm 4 m/s 756 mmHg 15%
    12:00 +43°C° 0 mm 3 m/s 755 mmHg 15%
    13:00 +44°C° 0 mm 3 m/s 754 mmHg 14%
    14:00 +46°C° 0 mm 3 m/s 753 mmHg 13%
    15:00 +42°C° 0 mm 4 m/s 753 mmHg 19%
    16:00 +39°C° 0 mm 5 m/s 753 mmHg 25%
    17:00 +34°C° 0 mm 6 m/s 752 mmHg 31%
    18:00 +32°C° 0 mm 5 m/s 753 mmHg 40%
    19:00 +29°C° 0 mm 5 m/s 754 mmHg 48%
    20:00 +26°C° 0 mm 4 m/s 755 mmHg 57%
    21:00 +26°C° 0 mm 4 m/s 755 mmHg 57%
    22:00 +25°C° 0 mm 3 m/s 755 mmHg 58%
    23:00 +25°C° 0 mm 3 m/s 756 mmHg 58%

    Amanhã, 5 Abril, Domingo

    Tempo Temperatura Precipitação Vento Pressão Humidade
    00:00 +24°C° 0 mm 2 m/s 755 mmHg 57%
    01:00 +24°C° 0 mm 2 m/s 755 mmHg 57%
    02:00 +23°C° 0 mm 1 m/s 755 mmHg 56%
    03:00 +23°C° 0 mm 1 m/s 755 mmHg 52%
    04:00 +23°C° 0 mm 1 m/s 755 mmHg 49%
    05:00 +23°C° 0 mm 2 m/s 756 mmHg 45%
    06:00 +25°C° 0 mm 2 m/s 756 mmHg 38%
    07:00 +28°C° 0 mm 3 m/s 757 mmHg 32%
    08:00 +30°C° 0 mm 3 m/s 757 mmHg 26%
    09:00 +35°C° 0 mm 4 m/s 757 mmHg 21%
    10:00 +38°C° 0 mm 4 m/s 757 mmHg 16%
    11:00 +43°C° 0 mm 4 m/s 757 mmHg 11%
    12:00 +44°C° 0 mm 4 m/s 756 mmHg 10%
    13:00 +45°C° 0 mm 4 m/s 755 mmHg 10%
    14:00 +46°C° 0 mm 3 m/s 754 mmHg 10%
    15:00 +43°C° 0 mm 4 m/s 754 mmHg 17%
    16:00 +39°C° 0 mm 5 m/s 754 mmHg 24%
    17:00 +35°C° 0 mm 6 m/s 753 mmHg 31%
    18:00 +32°C° 0 mm 5 m/s 754 mmHg 40%
    19:00 +29°C° 0 mm 5 m/s 755 mmHg 49%
    20:00 +26°C° 0 mm 4 m/s 755 mmHg 59%
    21:00 +25°C° 0 mm 4 m/s 755 mmHg 62%
    22:00 +24°C° 0 mm 3 m/s 756 mmHg 66%
    23:00 +24°C° 0 mm 3 m/s 756 mmHg 70%

    Depois de amanhã, 6 Abril, Segunda-feira

    Tempo Temperatura Precipitação Vento Pressão Humidade
    00:00 +22°C° 0 mm 3 m/s 755 mmHg 72%
    01:00 +23°C° 0 mm 2 m/s 755 mmHg 74%
    02:00 +21°C° 0 mm 2 m/s 755 mmHg 75%
    03:00 +22°C° 0 mm 1 m/s 755 mmHg 74%
    04:00 +21°C° 0 mm 1 m/s 755 mmHg 73%
    05:00 +21°C° 0 mm 1 m/s 755 mmHg 72%
    06:00 +24°C° 0 mm 1 m/s 756 mmHg 60%
    07:00 +27°C° 0 mm 1 m/s 757 mmHg 48%
    08:00 +29°C° 0 mm 1 m/s 757 mmHg 36%
    09:00 +34°C° 0 mm 2 m/s 757 mmHg 29%
    10:00 +38°C° 0 mm 3 m/s 757 mmHg 21%
    11:00 +42°C° 0 mm 3 m/s 756 mmHg 13%
    12:00 +44°C° 0 mm 3 m/s 756 mmHg 13%
    13:00 +45°C° 0 mm 4 m/s 755 mmHg 12%
    14:00 +47°C° 0 mm 4 m/s 754 mmHg 11%
    15:00 +42°C° 0 mm 4 m/s 754 mmHg 20%
    16:00 +39°C° 0 mm 5 m/s 753 mmHg 29%
    17:00 +34°C° 0 mm 6 m/s 753 mmHg 39%
    18:00 +30°C° 0 mm 5 m/s 754 mmHg 48%
    19:00 +28°C° 0 mm 4 m/s 754 mmHg 56%
    20:00 +26°C° 0 mm 4 m/s 755 mmHg 65%
    21:00 +25°C° 0 mm 3 m/s 755 mmHg 69%
    22:00 +24°C° 0 mm 3 m/s 755 mmHg 73%
    23:00 +22°C° 0 mm 3 m/s 756 mmHg 76%

    7 Abril, Terça-feira

    Tempo Temperatura Precipitação Vento Pressão Humidade
    00:00 +21°C° 0 mm 2 m/s 755 mmHg 78%
    01:00 +21°C° 0 mm 2 m/s 755 mmHg 80%
    02:00 +21°C° 0 mm 1 m/s 754 mmHg 81%
    03:00 +21°C° 0 mm 1 m/s 754 mmHg 81%
    04:00 +21°C° 0 mm 1 m/s 754 mmHg 81%
    05:00 +21°C° 0 mm 1 m/s 755 mmHg 81%
    06:00 +24°C° 0 mm 1 m/s 755 mmHg 69%
    07:00 +26°C° 0 mm 1 m/s 756 mmHg 57%
    08:00 +29°C° 0 mm 2 m/s 756 mmHg 44%
    09:00 +34°C° 0 mm 2 m/s 756 mmHg 35%
    10:00 +38°C° 0 mm 2 m/s 756 mmHg 25%
    11:00 +41°C° 0 mm 2 m/s 756 mmHg 15%
    12:00 +42°C° 0 mm 3 m/s 755 mmHg 18%
    13:00 +42°C° 0 mm 4 m/s 754 mmHg 20%
    14:00 +42°C° 0 mm 5 m/s 753 mmHg 23%
    15:00 +39°C° 0 mm 5 m/s 753 mmHg 32%
    16:00 +35°C° 0 mm 5 m/s 753 mmHg 41%
    17:00 +32°C° 0 mm 6 m/s 753 mmHg 51%
    18:00 +28°C° 0 mm 5 m/s 754 mmHg 61%
    19:00 +26°C° 0 mm 4 m/s 754 mmHg 70%
    20:00 +24°C° 0 mm 3 m/s 755 mmHg 80%
    21:00 +24°C° 0 mm 3 m/s 756 mmHg 83%
    22:00 +23°C° 0 mm 2 m/s 756 mmHg 85%
    23:00 +23°C° 0 mm 2 m/s 756 mmHg 88%

    8 Abril, Quarta-feira

    Tempo Temperatura Precipitação Vento Pressão Humidade
    00:00 +23°C° 0 mm 2 m/s 756 mmHg 89%
    01:00 +21°C° 0 mm 2 m/s 756 mmHg 90%
    02:00 +21°C° 0 mm 2 m/s 755 mmHg 91%
    03:00 +21°C° 0 mm 2 m/s 755 mmHg 91%
    04:00 +21°C° 0 mm 2 m/s 755 mmHg 92%
    05:00 +22°C° 0 mm 1 m/s 755 mmHg 92%
    06:00 +24°C° 0 mm 2 m/s 755 mmHg 81%
    07:00 +26°C° 0 mm 2 m/s 756 mmHg 69%
    08:00 +29°C° 0 mm 2 m/s 756 mmHg 58%
    09:00 +32°C° 0 mm 2 m/s 756 mmHg 46%
    10:00 +37°C° 0 mm 2 m/s 756 mmHg 33%
    11:00 +41°C° 0 mm 2 m/s 756 mmHg 21%
    12:00 +40°C° 0 mm 3 m/s 755 mmHg 23%
    13:00 +41°C° 0 mm 4 m/s 754 mmHg 26%
    14:00 +40°C° 0 mm 5 m/s 753 mmHg 29%
    15:00 +37°C° 0 mm 5 m/s 753 mmHg 37%
    16:00 +34°C° 0 mm 5 m/s 753 mmHg 45%
    17:00 +30°C° 0 mm 5 m/s 753 mmHg 53%
    18:00 +28°C° 0 mm 4 m/s 753 mmHg 63%
    19:00 +26°C° 0 mm 4 m/s 754 mmHg 74%
    20:00 +24°C° 0 mm 3 m/s 754 mmHg 84%
    21:00 +24°C° 0 mm 3 m/s 755 mmHg 85%
    22:00 +22°C° 0 mm 3 m/s 755 mmHg 87%
    23:00 +22°C° 0 mm 3 m/s 756 mmHg 89%

    9 Abril, Quinta-feira

    Tempo Temperatura Precipitação Vento Pressão Humidade
    00:00 +22°C° 0 mm 3 m/s 755 mmHg 90%
    01:00 +23°C° 0 mm 2 m/s 755 mmHg 91%
    02:00 +21°C° 0 mm 2 m/s 754 mmHg 92%
    03:00 +21°C° 0 mm 2 m/s 754 mmHg 91%
    04:00 +21°C° 0 mm 2 m/s 754 mmHg 91%
    05:00 +21°C° 0 mm 2 m/s 754 mmHg 91%
    06:00 +24°C° 0 mm 2 m/s 755 mmHg 79%
    07:00 +26°C° 0 mm 2 m/s 755 mmHg 67%
    08:00 +29°C° 0 mm 2 m/s 755 mmHg 55%
    09:00 +34°C° 0 mm 2 m/s 755 mmHg 43%
    10:00 +38°C° 0 mm 2 m/s 755 mmHg 30%
    11:00 +42°C° 0 mm 2 m/s 755 mmHg 18%
    12:00 +42°C° 0 mm 3 m/s 754 mmHg 20%
    13:00 +42°C° 0 mm 4 m/s 753 mmHg 22%
    14:00 +42°C° 0 mm 5 m/s 752 mmHg 24%
    15:00 +39°C° 0 mm 5 m/s 752 mmHg 33%
    16:00 +35°C° 0 mm 5 m/s 751 mmHg 41%
    17:00 +33°C° 0 mm 5 m/s 751 mmHg 49%
    18:00 +29°C° 0 mm 4 m/s 752 mmHg 60%
    19:00 +27°C° 0 mm 4 m/s 752 mmHg 71%
    20:00 +24°C° 0 mm 3 m/s 753 mmHg 81%
    21:00 +24°C° 0 mm 3 m/s 753 mmHg 82%
    22:00 +24°C° 0 mm 3 m/s 754 mmHg 83%
    23:00 +22°C° 0 mm 3 m/s 755 mmHg 84%
    Mostrar mais